Regional Weather Roundup
Issued by NWS Charleston, SC

Current Version | Previous Version | Text Only | Print | Product List | Glossary Off
Versions: 1 2 3 4 5 6 7 8 9 10 11 12 13 14 15 16 17 18 19 20 21 22 23 24 25 26 27 28 29 30 31 32 33 34 35 36 37 38 39 40 41 42 43 44 45 46 47 48 49 50
300 ASUS42 KCHS 240428 RWRCHS REGIONAL WEATHER ROUNDUP NATIONAL WEATHER SERVICE CHARLESTON SC 1200 AM EDT THU AUG 24 2017 NOTE: "FAIR" INDICATES FEW OR NO CLOUDS BELOW 12,000 FEET WITH NO SIGNIFICANT WEATHER AND/OR OBSTRUCTIONS TO VISIBILITY. NOT ALL STATIONS ARE QUALITY CONTROLLED. USE DATA WITH CAUTION... ESPECIALLY DEWPOINT OBSERVATIONS. SCZ027-030-031-034>040-042>050-240500- ...SOUTHEAST SOUTH CAROLINA... CITY SKY/WX TMP DP RH WIND PRES REMARKS N CHARLESTON MOCLDY 82 77 84 SW10 29.87R HX 90 WATERFRONT PRK N/A 85 79 82 SW7 29.72R HX 98 JOHNS ISLAND FAIR 84 79 84 S10 29.87F HX 96 PINOPOLIS N/A 82 79 89 SW6 29.80R HX 93 MONCKS CORNER FAIR 81 75 83 SW8 29.87S SUMMERVILLE FAIR 79 77 94 CALM 29.88S BEAUFORT MCAS PTCLDY 85 79 82 S6 29.88R HX 98 BEAUFORT ARPT FAIR 82 77 83 SW8 29.88R HX 91 HILTON HEAD IS CLEAR 84 79 84 S12G18 29.89S HX 96 WALTERBORO PTCLDY 79 75 89 SW3 29.88S ALLENDALE NOT AVBL ...SOUTHERN MIDLANDS AND PEE DEE... CITY SKY/WX TMP DP RH WIND PRES REMARKS GEORGETOWN FAIR 79 79 100 CALM 29.87F KINGSTREE FAIR 73 73 100 CALM 29.85S ORANGEBURG MOCLDY 80 74 81 S7 29.87R BARNWELL FAIR 82 75 78 S5 29.87F AIKEN FAIR 75 70 83 CALM 29.91S MANNING FAIR 81 64 57 W15 29.86S COLUMBIA PTCLDY 79 73 82 CALM 29.85S SUMTER MOCLDY 78 72 81 NE8 29.84S FLORENCE TSTM 72 72 100 E15 29.87F MYRTLE BEACH NOT AVBL N MYRTLE BEACH TSTM 72 72 100 N12G26 29.90R VSB 1 $$ GAZ063-065-086>088-099>101-113>116-118-119-134>141-150-240500- ...SOUTHEAST GEORGIA... CITY SKY/WX TMP DP RH WIND PRES REMARKS SAVANNAH ARPT CLOUDY 80 78 94 W3 29.90R HUNTER AAF PTCLDY 83 77 82 S7 29.86S HX 91 FORT STEWART PTCLDY 80 74 83 S5 29.87S STATESBORO PTCLDY 81 73 76 S6 29.88S SYLVANIA N/A 80 77 90 SW5 29.89S CLAXTON FAIR 81 77 89 CALM 29.89R ...CSRA...CENTRAL AND FAR SOUTHEAST GEORGIA... CITY SKY/WX TMP DP RH WIND PRES REMARKS THOMSON CLEAR 74 72 94 CALM 29.93R AUGUSTA-BUSH PTCLDY 80 73 79 CALM 29.85S AUGUSTA-DANIEL CLEAR 84 68 58 MISG 29.88S SWAINSBORO FAIR 79 73 83 CALM 29.90R VIDALIA PTCLDY 81 75 83 S5 29.88F EASTMAN MOCLDY 80 73 78 CALM 29.91S HAZLEHURST FAIR 82 68 61 SW6 29.88F ALMA PTCLDY 81 75 82 S5 29.90R WAYCROSS CLEAR 79 76 90 SW3 29.90S JESUP FAIR 81 73 78 CALM 29.90S BAXLEY MOCLDY 79 77 94 CALM 29.90R BRUNSWICK CLEAR 79 72 78 SW8 29.90S SAINT SIMONS CLEAR 84 76 76 SW10 29.89F HX 93 $$ SCZ027-028-034-036>038-045-046-048>050-GAZ119-141-240500- ...LAKE AND SUPPLEMENTAL COASTAL OBSERVATIONS... STATION/POSITION TIME TEMP WIND PRES WAVE SWELL AIR SEA DIR/SP/G HT/PER HT/PER/DIR (UTC) (F) (DEG/KT/KT) (MB) (FT/S) (FT/S/D) WINYAH BAY 0345 83 210/ 11 1011.0S LAKE MURRAY 0420 80 CALM / 3 1010.8 ACE BASIN NERRS 0345 84 CALM 1012.0R FORT PULASKI 0400 85 86 220/ 13/ 19 1012.0 SAPELO ISLAND 0400 83 200/ 10 1012.0 $$ ANZ835-935-AMZ111-154-330-350-352-354-370-450-454-472-240500- ...C-MAN AND BUOY OBSERVATIONS... STATION/POSITION TIME TEMP WIND PRES WAVE SWELL AIR SEA DIR/SP/G HT/PER HT/PER/DIR (UTC) (F) (DEG/KT/KT) (MB) (FT/S) (FT/S/D) BUOY 41004 0410 85 84 220/ 17/ 21 1011.4 BUOY 41008 0350 85 85 190/ 16/ 17 1011.7R 4/ 4 2/100/10 FOLLY BEACH CMAN 0400 85 210/ 19/ 22 1012.4R CAPERS NEARSHORE 0408 82 85 220/ 19/ 25 1010.9R FRIPP NEARSHORE 0408 85 220/ 16/ 21 1011.2R STATION/POSITION TIME TEMP WIND PRES WAVE SWELL AIR SEA DIR/SP/G HT/PER HT/PER/DIR (UTC) (F) (DEG/KT/KT) (MB) (FT/S) (FT/S/D) 5E ST. MARYS GA 0400 85 N/A 4/10 2/110/11 FRYING PAN BUOY 0410 84 84 220/ 16/ 17 1011.5 BUOY 41025 0350 84 84 240/ 16/ 19 1010.6F 4/ 5 2/130/ 9 CAPE LOOKOUT NC 0400 78 330/ 6/ 7 1010.4F BUOY 41002 0350 84 85 230/ 10/ 10 1013.5R 3/ 9 2/ 90/ 9 BUOY 41010 0410 85 85 180/ 14/ 17 1013.2 ST AUGUSTINE FL 0400 81 84 190/ 7/ 8 1013.0R $$

USA.gov is the U.S. government's official web portal to all federal, state and local government web resources and services.